This is the latest recevied weather packets stored in our database for station/object IU5JAE-13. If no packets are shown the sender has not sent any weather packets the latest 10 day(s).
| Time | Temp. | Humidity | Pressure | Rain* | Wind** | Luminosity | Snow |
|---|---|---|---|---|---|---|---|
| 1777476320 | 20.56° C | 40% | 1014.9 hPa | 0 mm | - | 252 W/m² | - |
| 1777475718 | 20.56° C | 39% | 1014.9 hPa | 0 mm | - | 277 W/m² | - |
| 1777475116 | 20.56° C | 38% | 1015 hPa | 0 mm | - | 298 W/m² | - |
| 1777474534 | 21.11° C | 38% | 1015 hPa | 0 mm | - | 322 W/m² | - |
| 1777473931 | 21.67° C | 38% | 1015 hPa | 0 mm | - | 347 W/m² | - |
| 1777473329 | 21.11° C | 40% | 1015 hPa | 0 mm | - | 371 W/m² | - |
| 1777472726 | 20.56° C | 39% | 1015 hPa | 0 mm | - | 395 W/m² | - |
| 1777472124 | 21.67° C | 41% | 1015.2 hPa | 0 mm | - | 415 W/m² | - |
| 1777471521 | 21.67° C | 42% | 1015.2 hPa | 0 mm | - | 435 W/m² | - |
| 1777470919 | 21.67° C | 42% | 1015.2 hPa | 0 mm | - | 456 W/m² | - |
| 1777470316 | 21.67° C | 43% | 1015.3 hPa | 0 mm | - | 475 W/m² | - |
| 1777469734 | 21.67° C | 43% | 1015.3 hPa | 0 mm | - | 499 W/m² | - |
| 1777469132 | 21.67° C | 41% | 1015.4 hPa | 0 mm | - | 522 W/m² | - |
| 1777468529 | 21.67° C | 38% | 1015.5 hPa | 0 mm | - | 547 W/m² | - |
| 1777467927 | 21.67° C | 38% | 1015.4 hPa | 0 mm | - | 569 W/m² | - |
| 1777467324 | 21.11° C | 37% | 1015.6 hPa | 0 mm | - | 591 W/m² | - |
| 1777466722 | 21.11° C | 38% | 1015.6 hPa | 0 mm | - | 608 W/m² | - |
| 1777466120 | 21.67° C | 35% | 1015.6 hPa | 0 mm | - | 625 W/m² | - |
| 1777465517 | 21.67° C | 33% | 1015.6 hPa | 0 mm | - | 633 W/m² | - |
| 1777464935 | 21.11° C | 33% | 1015.6 hPa | 0 mm | - | 643 W/m² | - |
| 1777464333 | 20.56° C | 33% | 1015.5 hPa | 0 mm | - | 653 W/m² | - |
| 1777463730 | 20.56° C | 35% | 1015.6 hPa | 0 mm | - | 664 W/m² | - |
| 1777463128 | 20.56° C | 40% | 1015.6 hPa | 0 mm | - | 675 W/m² | - |
| 1777462525 | 20° C | 43% | 1015.7 hPa | 0 mm | - | 612 W/m² | - |
| 1777461923 | 21.11° C | 40% | 1015.7 hPa | 0 mm | - | 470 W/m² | - |
* Rain latest hour (hover to see other rain measurements)
** Current wind speed in m/s (hover to see current wind gust speed)